{"data":{"norad_id":52831,"epoch":"2026-05-25T03:36:57.235680Z","epoch_age_seconds":61694,"freshness":"FRESH","line1":"1 52831U 22062B   26145.15066245 -.00001508  00000+0 -76662-4 0  9994","line2":"2 52831  53.2149  50.8702 0001406  89.8031 270.3123 15.08850091217327","mean_motion":15.08850091,"eccentricity":0.0001406,"inclination_deg":53.2149,"raan_deg":50.8702,"arg_perigee_deg":89.8031,"mean_anomaly_deg":270.3123,"bstar":-7.6662e-5,"rev_number":21732,"period_min":95.43691640338,"perigee_km":538.73989533995,"apogee_km":540.685194632,"semimajor_km":6917.849544986,"source":"CELESTRAK","updated_at":"2026-05-25T13:38:17.240336Z"}}